Theta_e
298 298 297 297 297 297 297 297 297 298 300 301 302 306 311 314 315 314 313 313 312 314 317 317 316 317 316 316 317 316 317 318 318 317 318 318 318 319 319 319 320 320 320 321 321 322 322 322 321 321 320 319 317 317 318 317 317 318 320 323 322 319 318 319 318 318 319 319 319 318 316 314 313 313 316 317 316 315 316 316 316 317 317 316 317 317 318
297 297 297 297 297 297 296 296 296 297 299 300 301 305 310 312 314 313 312 312 312 315 318 317 317 317 315 315 316 315 316 317 316 316 317 319 319 318 318 318 319 319 319 320 320 321 321 320 321 321 321 321 319 317 317 317 317 320 323 324 322 320 319 320 320 319 320 321 321 320 317 314 314 315 317 315 314 315 316 315 315 316 316 315 317 317 317
296 296 297 297 297 297 296 296 296 296 297 298 300 303 307 310 312 313 312 311 311 315 316 315 316 316 315 316 315 314 315 315 315 315 315 316 319 319 318 318 318 319 319 319 319 319 319 319 319 321 321 322 321 319 319 319 318 319 320 321 321 319 320 321 320 320 321 320 320 320 319 318 316 317 319 317 316 316 315 315 315 315 315 315 316 316 315
295 295 295 296 296 297 296 296 296 295 296 297 298 300 304 308 309 310 312 311 312 313 314 314 316 315 315 316 315 314 315 314 314 314 314 314 315 316 316 316 316 317 317 318 317 317 317 317 317 318 320 321 320 320 321 321 320 321 321 320 318 316 318 320 319 320 320 319 319 320 320 320 318 317 318 317 317 316 314 315 315 314 315 315 315 315 315
295 295 295 295 295 296 296 296 295 295 295 295 296 299 303 306 306 309 312 313 313 313 314 314 315 314 314 314 314 314 314 314 313 313 314 315 314 314 314 314 315 316 316 316 316 316 316 316 315 316 317 317 316 317 318 319 319 321 320 319 316 314 316 318 318 318 318 318 318 318 318 318 317 317 317 316 316 316 316 316 315 314 316 316 315 315 315
295 295 295 295 295 295 296 296 296 296 295 294 296 299 302 303 304 306 309 310 311 314 314 313 314 314 314 313 312 313 313 313 313 312 313 314 313 313 314 314 314 314 314 314 315 314 315 315 315 315 314 312 311 312 313 314 317 317 316 317 317 316 316 317 317 317 317 317 317 317 317 317 316 316 316 316 316 316 317 317 315 316 317 316 315 315 315
295 295 295 295 295 295 295 295 295 296 296 295 295 297 299 301 302 303 305 305 307 309 308 309 311 312 312 313 312 312 312 311 312 312 313 313 313 313 314 313 311 309 309 310 311 312 313 313 312 311 308 306 307 309 310 312 313 311 311 313 315 315 316 317 316 316 316 316 316 316 316 316 316 316 316 315 316 316 316 316 315 315 316 315 315 315 315
295 295 294 294 295 294 295 295 294 295 296 295 295 296 298 299 301 302 302 302 303 304 304 305 307 308 309 311 312 311 312 312 311 312 313 313 312 312 312 308 306 305 306 306 307 308 308 307 306 306 304 304 305 307 308 310 309 307 308 311 313 314 316 316 317 317 316 316 315 315 316 315 315 316 315 315 315 315 315 315 315 315 315 315 315 315 315
294 294 294 294 294 294 294 295 294 295 296 295 295 296 296 297 298 299 300 301 303 305 305 304 304 306 307 309 310 311 311 310 309 308 310 311 310 308 305 303 303 304 304 304 305 305 303 302 302 303 302 303 304 304 305 307 307 306 307 309 310 312 314 314 316 318 318 317 316 315 314 314 314 315 314 315 315 314 314 314 314 315 315 315 315 315 315
294 294 294 294 294 294 294 294 294 295 295 295 295 295 295 295 296 298 299 299 300 302 303 304 304 305 305 305 306 307 306 305 305 306 307 308 305 301 300 301 302 303 303 303 302 301 300 300 300 301 301 302 303 303 304 305 306 307 308 308 309 310 311 313 314 315 316 316 316 315 315 316 316 316 315 314 313 314 314 313 314 314 315 315 315 314 312
294 294 294 293 294 294 294 294 294 295 295 296 295 295 295 295 296 297 298 297 297 298 300 301 301 302 302 302 302 303 302 301 301 303 304 303 302 299 299 299 301 302 302 300 298 298 299 300 300 300 301 301 302 303 304 305 306 306 307 308 308 309 310 311 312 313 313 314 315 315 316 317 318 319 317 314 314 315 314 314 314 313 311 310 310 308 304
293 293 294 294 294 294 294 294 294 295 295 295 295 295 295 296 296 295 296 295 295 297 298 298 299 299 299 299 298 299 299 298 298 299 299 300 299 298 298 299 301 301 300 298 297 298 299 299 299 299 300 301 302 303 304 304 305 305 307 308 308 308 309 309 309 311 312 312 313 315 315 315 317 317 312 309 310 310 311 313 311 304 300 301 302 301 299
293 293 294 294 294 295 295 295 294 295 295 294 295 295 295 295 295 295 295 294 294 295 296 296 296 296 296 296 297 296 297 298 298 299 299 299 298 297 299 302 301 300 299 298 299 299 298 297 298 298 298 299 300 301 302 303 303 304 305 307 308 307 308 308 309 310 310 310 311 313 313 314 316 311 303 300 301 300 302 308 305 295 294 298 299 297 297
294 294 294 294 294 294 295 295 295 295 295 294 294 294 294 295 295 295 295 294 293 293 294 294 294 294 293 294 295 295 296 298 298 297 298 298 298 297 299 301 299 297 297 298 298 298 297 298 298 297 297 297 297 299 301 302 304 305 305 306 308 308 308 309 309 310 311 311 311 310 311 313 311 304 298 297 297 296 298 304 300 293 293 297 296 296 296
295 295 295 295 295 295 294 295 295 294 294 294 294 294 294 294 294 294 295 295 294 294 294 293 294 294 293 294 294 294 295 296 296 296 297 297 296 296 297 297 296 296 297 296 296 298 298 297 297 296 296 297 297 298 299 300 304 307 307 305 303 305 307 307 308 310 310 311 310 310 312 311 302 296 295 296 295 294 296 302 300 294 293 295 295 295 295
295 295 295 295 294 294 294 294 294 294 294 294 294 294 294 294 294 294 294 294 294 293 293 293 294 294 294 294 294 294 295 295 295 295 295 295 295 296 296 295 294 294 296 296 296 297 297 296 296 296 296 297 296 296 297 298 299 301 303 302 299 299 303 304 304 305 305 306 306 306 309 306 297 294 295 295 293 294 298 304 302 294 292 294 295 294 294
295 295 295 295 295 294 294 294 294 294 294 294 294 294 294 294 294 294 293 294 294 293 293 294 294 294 294 294 294 295 295 296 295 295 295 295 295 296 296 296 295 294 295 295 296 296 296 296 295 295 295 295 295 295 296 297 296 296 298 299 298 298 301 301 300 300 300 302 302 302 305 301 293 293 294 293 293 297 301 306 302 293 292 294 293 292 293
295 295 295 295 294 294 294 294 295 295 294 294 294 294 294 293 294 294 293 293 293 293 293 293 294 293 293 294 294 295 295 295 295 295 295 295 295 295 296 296 296 295 294 295 295 295 295 294 294 294 295 295 295 296 296 296 295 295 296 297 297 298 299 299 298 298 299 299 299 299 301 298 292 292 293 292 294 297 298 299 296 292 292 293 292 291 292
295 295 295 295 295 294 294 295 295 295 294 294 294 294 294 294 294 294 293 293 293 293 293 293 293 293 293 293 293 294 295 295 295 294 294 294 294 294 295 295 294 294 294 295 295 295 294 294 294 295 295 295 296 296 295 295 295 294 294 294 294 295 296 297 297 297 296 296 295 295 297 297 292 291 292 292 294 294 293 294 294 293 292 292 291 291 291
295 295 295 295 295 294 295 294 295 294 294 294 294 294 294 293 293 293 293 292 293 293 292 292 293 293 293 292 292 293 294 294 294 293 293 293 293 294 294 293 293 294 293 293 293 294 293 293 294 294 294 295 296 295 293 293 294 292 291 292 292 292 293 293 293 293 293 293 292 292 294 295 292 290 291 292 293 292 292 293 294 292 291 291 290 290 290
294 295 295 294 294 295 295 294 294 294 294 294 294 293 293 294 294 293 293 293 292 292 292 292 292 292 292 292 292 293 293 293 293 294 293 293 294 294 292 292 295 296 295 294 293 293 293 293 293 292 292 293 294 293 292 293 292 291 290 290 290 291 291 290 291 293 292 292 292 293 293 292 291 290 290 291 292 292 293 292 291 290 290 290 289 288 288
294 294 294 294 294 294 294 294 294 294 293 294 294 293 293 294 293 293 293 292 292 292 292 292 292 292 292 292 292 292 293 293 293 293 293 292 293 294 293 293 295 296 295 295 294 292 292 293 293 293 292 292 291 291 291 291 290 290 290 290 290 291 292 291 291 292 292 291 292 292 291 290 289 289 290 292 293 293 291 290 289 289 288 289 288 287 287
294 294 294 294 294 294 294 294 294 293 293 293 293 293 293 293 293 294 293 291 291 291 292 292 292 292 292 292 292 292 292 293 293 293 292 292 292 293 292 292 292 293 295 295 293 293 293 293 292 292 292 291 291 291 291 290 290 289 290 290 290 291 291 290 290 290 290 290 290 290 289 289 288 288 291 294 294 291 289 288 288 288 287 287 287 286 286
293 294 294 294 294 294 294 294 294 293 293 293 293 293 293 293 293 293 292 291 291 291 292 292 292 292 292 292 291 291 292 292 292 293 292 292 292 292 292 292 292 293 294 294 293 293 292 291 291 291 291 291 292 291 290 290 289 289 289 289 290 290 289 289 290 289 289 289 289 288 288 288 287 288 291 293 292 289 288 287 287 286 286 286 285 285 285
293 294 293 294 294 293 294 294 293 293 293 293 293 293 292 292 293 292 292 291 292 291 291 292 292 292 292 291 291 291 292 291 291 292 292 292 292 292 292 292 292 292 293 293 292 292 290 289 290 291 290 291 292 291 290 289 289 290 290 289 289 289 290 290 289 289 288 288 288 287 287 288 287 287 289 290 290 288 286 286 285 285 284 284 284 284 283
293 293 293 293 293 293 293 293 293 293 293 293 293 293 292 292 292 292 292 291 291 291 291 291 291 291 291 291 291 291 292 291 291 292 292 292 292 292 291 291 292 292 292 292 292 291 290 290 290 290 290 291 292 291 290 289 289 290 289 289 289 289 290 290 289 289 288 288 288 288 287 287 288 288 288 289 288 286 285 284 284 284 283 282 282 282 281
293 293 292 292 293 293 293 293 293 293 293 293 293 292 292 292 292 292 292 291 291 291 291 291 291 291 291 291 291 291 291 291 292 292 292 292 292 292 291 291 291 291 291 291 291 290 289 289 290 290 290 290 291 291 291 290 289 290 289 289 289 289 289 289 289 288 288 288 288 288 288 288 287 288 290 290 287 284 284 284 283 282 282 281 280 279 278
292 292 292 292 292 293 293 293 293 293 292 292 292 292 291 291 292 292 292 292 291 290 290 291 291 290 290 290 291 291 291 291 291 291 291 291 291 291 291 291 291 291 291 291 291 290 289 289 290 290 290 291 291 291 290 289 289 290 290 289 289 290 289 288 288 288 288 288 288 288 288 288 287 288 290 289 285 282 283 283 282 281 280 278 278 277 276
292 292 292 292 292 292 293 293 293 293 293 292 292 291 290 290 291 291 292 292 291 290 290 291 290 290 290 290 290 290 291 291 291 291 291 291 290 291 291 291 291 291 291 291 291 290 289 289 289 290 291 292 291 290 289 289 288 289 290 289 289 289 289 289 289 288 288 288 289 289 288 288 288 287 286 284 283 282 281 280 279 278 278 277 276 275 275
292 292 292 292 292 292 292 293 292 292 293 292 291 291 290 290 291 291 291 291 290 290 290 291 290 291 291 291 291 290 290 290 291 290 290 290 290 290 291 291 291 291 291 290 289 289 289 289 290 290 290 291 291 290 289 289 289 288 289 289 289 289 289 289 288 288 288 288 287 286 286 286 285 283 281 281 280 279 278 277 276 276 276 275 274 274 274
292 292 292 292 292 292 292 292 292 292 292 291 290 290 290 291 291 290 291 291 291 290 290 290 291 291 291 291 291 290 289 289 290 289 289 290 290 290 291 291 291 291 291 290 288 289 289 290 290 289 290 291 290 289 289 289 288 288 288 289 289 288 288 289 288 286 285 283 281 280 281 281 280 280 281 280 277 275 274 274 274 275 275 274 274 273 273
291 291 291 291 292 292 292 292 292 292 292 291 291 290 291 291 291 290 290 291 291 290 289 290 290 290 290 291 291 290 289 289 290 290 290 290 290 290 290 291 291 291 291 290 289 288 288 288 288 288 289 290 291 290 289 289 288 288 288 288 288 288 288 287 286 282 278 277 278 281 284 283 281 280 279 276 273 272 273 273 273 273 273 273 272 272 271
291 291 291 291 291 291 292 292 292 292 292 291 291 291 291 290 290 291 291 291 290 290 289 289 289 290 290 290 290 289 289 290 291 291 290 291 291 291 291 291 291 291 291 291 291 289 288 289 289 289 289 290 290 290 290 289 289 289 289 288 289 288 285 282 280 277 274 273 275 279 281 280 277 275 273 272 271 272 272 272 272 272 271 271 270 270 270
291 291 291 291 291 291 291 291 291 292 292 291 290 291 291 291 291 291 291 291 290 289 289 289 289 289 289 289 289 290 290 291 291 291 290 291 291 291 291 291 291 290 290 290 290 290 290 289 289 290 290 290 289 289 289 289 289 289 289 289 286 283 281 279 277 274 271 270 271 272 273 273 272 271 271 271 271 271 271 271 271 270 269 269 269 269 269
291 291 291 291 291 291 291 291 291 291 290 290 290 290 291 291 291 290 291 291 290 290 290 289 288 289 289 288 289 290 290 291 292 291 290 291 291 291 291 291 289 290 290 289 289 290 290 289 288 288 287 287 288 288 288 288 287 287 287 284 279 276 279 280 275 270 268 268 269 269 269 269 270 270 270 270 270 270 270 270 269 269 268 268 268 268 268
290 290 290 290 291 291 290 290 290 290 289 289 290 290 290 290 290 290 291 291 290 289 289 289 289 289 288 288 290 291 289 290 292 291 290 290 291 291 290 288 287 288 289 288 289 290 290 289 288 286 285 287 288 287 285 285 285 284 280 275 270 270 272 273 270 267 266 267 267 268 269 269 269 269 269 269 269 269 269 268 268 267 267 267 267 267 266
290 290 290 290 290 289 289 289 289 290 289 289 290 290 290 291 290 290 290 290 289 289 288 288 289 289 288 289 291 291 289 289 291 290 289 290 291 290 288 286 287 288 287 286 288 290 289 288 288 288 288 287 284 279 275 274 275 274 270 267 267 267 267 267 266 266 266 268 269 269 268 267 267 267 268 268 268 267 267 266 266 266 266 266 266 265 265
290 290 289 288 288 288 289 289 289 289 289 290 290 290 290 290 290 290 289 289 289 290 289 289 288 288 289 290 290 289 290 290 290 289 289 289 289 289 287 287 289 289 286 285 287 288 287 288 288 288 288 285 277 270 268 268 267 266 265 265 265 265 265 265 265 265 266 270 271 269 266 266 266 266 267 266 266 265 265 265 265 265 265 264 264 263 263
289 289 288 288 288 288 289 289 289 289 290 290 290 289 289 288 289 288 288 288 289 289 289 290 289 288 289 289 289 289 291 290 289 289 290 290 289 289 287 287 289 288 285 286 288 288 287 288 286 285 288 287 277 268 265 266 265 264 264 264 264 264 263 264 264 264 265 267 267 265 264 265 265 265 265 264 264 264 264 264 264 263 263 263 262 262 262
288 288 288 288 288 288 288 289 289 290 290 289 288 288 288 288 288 288 287 287 288 289 289 290 290 289 288 289 288 289 290 290 289 289 289 289 289 289 286 286 287 286 285 287 288 286 286 286 284 284 288 285 274 265 263 264 264 263 263 263 263 263 263 263 263 263 263 263 263 263 263 263 263 263 263 263 263 262 262 262 262 262 262 261 261 261 261
287 287 288 288 288 288 288 289 288 288 289 288 287 287 288 287 287 286 285 286 288 289 288 289 290 290 290 289 289 289 290 290 289 287 285 285 287 288 286 285 285 284 284 285 286 285 285 284 285 286 284 274 265 262 263 263 263 262 262 262 262 262 262 262 262 262 262 262 261 262 261 261 261 262 261 261 261 261 261 261 261 261 260 260 260 260 260
287 287 287 287 287 287 288 288 287 287 288 287 287 287 287 287 286 286 286 287 289 290 289 289 290 291 290 288 288 289 288 287 287 286 284 284 287 287 286 285 285 284 283 284 285 285 284 284 286 286 276 265 262 263 263 262 262 262 262 262 262 261 261 261 261 261 261 261 260 260 260 260 260 260 260 260 260 260 260 260 260 259 260 260 259 260 260
287 287 287 287 287 287 287 287 286 287 287 287 286 286 287 287 287 288 289 289 289 289 290 290 290 290 289 287 287 288 288 286 287 287 285 285 287 286 285 285 286 285 284 285 286 285 285 287 288 283 270 262 262 264 262 261 262 262 261 261 261 261 260 261 260 260 260 260 260 260 260 259 259 260 259 259 259 259 259 259 259 259 259 259 259 260 260
287 286 286 286 287 287 287 287 287 287 287 286 285 286 287 287 287 288 290 289 288 289 289 288 288 289 289 287 286 287 288 287 287 287 285 285 286 285 285 287 287 285 284 286 287 286 286 286 281 272 264 261 263 263 262 261 261 261 260 261 261 260 260 260 259 259 259 259 259 259 259 258 259 259 259 258 258 258 258 258 258 258 259 259 259 260 260
286 285 285 285 286 287 287 286 285 285 286 287 287 288 287 287 288 289 285 282 284 286 286 286 288 290 288 285 284 286 287 286 286 285 285 285 285 285 285 287 286 285 286 287 286 286 287 283 273 264 262 263 263 262 261 261 261 260 260 260 259 259 259 259 259 259 259 258 258 258 258 258 258 258 258 258 258 258 258 258 258 258 259 260 260 261 261
285 285 285 286 286 286 286 285 283 285 287 287 287 288 288 288 288 285 277 274 279 284 283 282 286 289 288 285 284 285 286 286 285 284 284 285 286 285 284 284 285 285 286 286 285 287 287 279 268 263 263 263 261 261 261 260 260 260 259 259 259 259 259 258 258 258 258 258 258 258 258 258 258 258 258 258 258 258 258 258 258 259 260 260 261 262 262
286 286 286 286 285 286 287 284 282 281 282 282 281 282 282 280 279 277 273 272 276 279 279 280 284 286 287 286 285 285 286 286 286 285 285 286 286 286 285 285 285 286 286 286 287 288 282 271 263 262 263 261 260 260 260 259 259 259 259 258 259 259 258 258 258 258 258 258 258 257 257 257 257 257 257 257 257 257 258 259 259 260 261 261 262 262 262
285 284 284 285 286 286 286 283 280 278 277 277 276 276 275 276 277 276 272 270 272 275 278 282 285 286 285 286 286 286 286 285 285 286 286 285 285 285 286 285 285 284 285 285 284 279 271 265 262 261 261 260 259 259 259 259 259 259 258 258 259 258 258 258 258 257 257 258 257 257 257 257 257 257 257 257 257 258 259 259 260 261 261 262 262 262 262
285 284 284 284 285 283 281 280 280 279 277 276 275 274 274 276 277 274 270 269 272 274 277 280 284 286 286 285 285 285 285 285 285 285 285 284 285 285 285 284 285 284 282 277 272 268 264 262 261 260 259 259 259 259 258 259 259 258 258 258 258 258 258 258 257 257 257 257 257 257 257 256 256 257 257 257 258 259 259 260 260 261 261 261 262 261 261
284 283 281 281 282 282 280 279 281 281 278 276 276 275 275 275 274 272 269 270 272 274 277 280 283 284 284 284 284 284 284 285 284 284 284 284 284 283 282 283 286 285 277 268 263 263 262 261 260 259 258 258 258 258 258 258 258 258 258 258 257 257 257 257 257 257 257 257 256 256 256 256 256 257 257 257 258 259 259 260 261 261 261 261 261 261 261
279 277 275 274 276 279 280 280 280 280 279 277 275 274 273 273 273 271 268 268 272 278 282 284 283 282 283 284 284 283 282 282 282 283 283 283 282 284 286 284 279 274 268 262 260 260 260 259 258 258 258 257 257 258 258 258 257 257 257 257 257 257 257 257 256 256 256 256 256 256 256 256 256 257 257 258 259 259 260 261 261 261 261 261 261 261 261
277 275 272 270 270 272 274 276 276 275 273 272 270 269 269 270 269 267 266 268 275 281 282 281 281 282 283 282 281 280 281 281 281 281 282 279 276 276 279 276 268 262 261 260 259 258 258 257 257 258 257 257 257 257 257 257 257 257 256 256 256 256 256 256 256 256 256 255 255 255 255 256 257 257 257 258 259 260 260 261 261 261 261 261 261 260 260
Wind_Speed
7 7 8 8 8 9 10 10 11 12 10 8 6 2 2 4 4 2 11 27 25 9 4 5 4 4 3 2 2 2 2 3 4 4 4 4 4 3 4 5 6 6 6 7 6 5 5 7 8 7 7 10 11 12 12 11 10 7 5 4 4 4 3 5 7 6 7 11 13 13 9 6 6 6 5 6 6 6 8 6 4 5 6 5 8 11 7
7 7 8 8 8 8 9 9 10 10 9 11 9 1 2 2 2 1 14 29 20 4 5 6 6 6 3 3 4 3 2 4 7 6 4 4 4 5 5 5 6 7 7 8 8 7 6 8 9 9 6 7 11 16 17 14 9 5 4 4 4 5 4 5 7 6 5 6 7 10 8 5 5 6 6 8 11 12 10 5 3 6 10 12 13 12 9
7 7 7 8 8 8 8 8 8 9 8 9 7 2 1 2 2 1 9 21 14 4 6 6 5 6 7 8 7 6 4 5 8 9 6 5 5 3 3 3 4 6 7 8 8 8 7 7 6 5 4 4 6 10 13 12 8 7 8 6 2 5 5 5 6 7 8 8 7 7 6 4 3 4 5 7 10 11 10 7 6 9 12 15 14 11 10
7 7 7 7 7 7 8 7 7 9 7 7 8 5 1 1 3 2 3 9 7 4 5 6 5 6 7 7 7 10 10 5 5 7 7 8 7 4 5 5 4 4 6 8 9 9 9 8 5 4 5 4 3 4 7 9 9 11 12 5 4 1 4 6 10 12 12 13 12 7 4 4 5 7 10 11 8 8 7 6 9 11 11 13 13 13 15
8 8 7 7 7 7 7 7 7 8 7 7 8 5 2 2 3 3 3 3 5 6 6 6 6 6 7 5 4 10 12 7 5 6 6 7 8 6 6 8 9 9 9 9 8 9 10 9 8 8 8 6 6 8 8 8 10 12 12 6 4 3 6 9 15 18 17 18 19 16 13 13 15 16 18 17 14 12 11 12 13 12 11 13 13 14 17
9 8 8 8 7 7 7 7 7 7 8 6 5 2 2 2 1 2 2 1 4 6 6 7 7 8 9 6 5 9 10 7 5 4 4 5 5 4 4 9 13 12 10 8 7 8 9 8 8 6 4 4 6 8 8 8 9 10 8 6 4 5 9 12 16 18 19 19 21 21 19 18 18 19 20 20 19 19 19 20 21 17 16 17 15 17 20
9 9 9 8 8 8 7 7 6 6 7 5 3 1 2 1 1 3 2 0 3 3 1 2 5 8 8 5 7 11 12 11 8 4 2 3 4 6 6 6 5 4 3 2 3 6 6 5 4 1 2 4 3 4 7 6 5 7 8 7 4 3 6 11 15 17 17 18 20 21 21 21 20 20 21 21 22 24 24 24 24 24 24 24 22 24 25
10 10 9 9 8 8 8 7 7 6 5 4 1 2 2 1 2 3 2 1 3 1 1 1 2 4 5 5 7 8 11 12 9 4 4 4 2 4 4 1 3 2 0 2 4 4 1 2 3 1 3 4 3 1 4 5 7 8 8 5 3 2 4 8 12 12 13 16 18 19 19 20 21 21 21 22 24 25 25 23 22 22 24 26 27 27 23
11 11 10 10 10 9 8 8 7 6 5 3 2 3 3 2 4 3 3 3 2 0 1 1 1 3 4 4 4 5 6 6 3 2 4 5 1 2 2 4 3 2 3 4 4 1 1 3 6 4 4 5 4 3 4 6 9 9 7 5 4 4 4 6 9 9 8 11 15 18 18 19 21 22 23 25 25 23 22 21 20 21 23 25 24 21 16
12 12 12 11 11 10 10 9 8 7 6 4 3 2 3 3 5 3 1 3 3 2 2 1 3 5 3 1 2 3 3 2 3 3 3 2 4 6 5 4 4 3 5 6 3 1 3 7 8 6 7 9 9 9 9 10 9 7 7 6 4 5 5 5 7 8 7 9 13 15 15 14 14 17 22 26 26 24 22 21 22 22 20 18 16 12 9
14 13 13 12 12 12 11 10 9 8 9 7 6 4 3 1 2 2 1 4 5 2 2 4 5 3 2 2 2 2 2 3 4 3 3 1 3 5 5 4 5 3 3 3 3 4 7 9 8 7 8 11 12 11 12 14 14 10 8 7 6 8 9 8 7 8 9 12 14 13 11 10 7 7 14 22 25 25 24 21 20 17 11 9 8 7 13
14 14 14 14 14 13 12 12 12 11 12 11 9 10 8 4 2 2 1 5 6 3 4 6 5 2 4 4 3 2 3 3 2 2 5 6 5 4 3 2 3 3 1 2 5 6 5 7 7 7 9 11 13 14 15 18 17 14 11 10 10 11 12 9 8 8 10 11 13 11 9 9 5 2 3 7 11 12 15 15 11 9 12 14 14 16 17
15 15 15 15 15 14 14 14 15 14 14 14 13 15 14 9 4 1 1 4 6 5 5 6 6 4 5 6 6 5 6 5 3 1 3 6 7 5 2 1 3 3 4 5 6 7 6 7 7 7 8 8 8 12 16 19 19 16 14 13 12 12 12 9 7 8 8 9 11 12 10 6 2 6 13 13 9 13 14 7 6 13 13 11 13 14 14
17 17 16 16 15 15 15 15 16 16 15 15 15 16 16 13 8 3 2 4 6 5 4 5 7 7 9 9 7 6 6 5 3 1 1 4 6 4 1 2 3 2 4 4 4 4 4 4 4 5 5 4 4 6 9 11 13 15 15 12 9 10 9 8 7 7 7 10 13 14 14 11 3 4 9 8 4 7 8 3 5 12 12 10 12 13 14
20 19 18 18 17 17 17 16 17 17 16 16 16 16 17 17 14 8 3 3 5 5 5 6 4 4 7 8 6 4 4 4 3 2 2 3 5 3 1 4 4 3 2 2 2 1 2 2 3 5 4 3 3 3 3 4 5 7 7 2 1 2 5 4 5 4 5 10 11 10 12 9 2 3 5 4 5 9 8 7 2 8 12 11 12 14 16
23 22 21 21 20 19 19 18 18 18 17 16 17 18 19 19 18 14 5 2 4 4 5 8 7 4 4 3 3 3 2 2 2 2 3 5 5 4 2 3 5 4 2 1 1 1 1 3 4 4 5 4 4 4 4 4 4 3 3 6 8 5 2 2 5 5 6 9 9 7 7 2 5 7 8 7 11 12 6 6 4 7 12 11 12 14 14
24 23 23 23 22 21 21 20 19 19 18 17 18 20 21 20 21 18 8 2 5 5 2 3 5 5 4 2 1 3 2 1 2 2 3 4 2 3 5 4 3 3 3 2 2 2 3 4 4 5 6 4 3 5 5 4 5 6 6 7 8 7 4 3 5 7 8 9 9 7 4 1 6 10 10 11 13 9 2 4 2 8 9 8 11 12 11
23 23 23 22 23 23 22 21 21 19 19 19 19 21 21 20 22 21 10 3 5 6 4 6 6 3 4 3 2 3 2 1 1 2 3 2 0 2 4 3 3 3 2 3 2 4 4 4 4 4 6 4 4 5 5 5 7 6 4 4 3 3 3 3 4 6 7 8 8 6 2 2 6 11 13 14 11 2 2 4 5 7 6 6 9 9 9
23 24 23 23 24 24 22 22 22 21 21 20 19 20 22 22 24 23 12 3 4 6 5 9 10 8 7 5 3 2 2 3 3 3 1 3 2 2 2 2 1 2 0 2 1 3 3 4 4 2 3 4 4 2 2 4 4 3 3 4 3 2 2 3 3 4 4 4 5 7 5 1 9 14 13 11 6 2 3 3 1 3 5 5 5 6 7
24 24 23 23 24 24 23 23 22 22 22 21 20 20 21 22 24 25 17 7 3 6 6 8 12 12 9 6 6 5 4 4 4 3 3 5 2 4 2 5 2 1 1 1 1 2 3 3 3 1 1 4 3 1 1 2 4 3 3 4 4 3 4 4 4 3 5 6 7 8 7 3 11 14 10 6 2 4 6 3 2 2 4 4 4 5 6
25 24 24 25 24 24 25 23 23 24 23 22 22 21 20 21 23 25 26 17 6 4 7 9 14 17 15 12 13 14 11 7 6 5 5 5 2 3 1 5 3 1 1 3 3 2 2 3 3 2 1 2 3 2 1 1 5 4 1 1 4 3 2 5 4 3 4 5 6 5 6 7 9 7 4 4 2 3 2 1 3 3 3 2 4 5 6
25 25 25 26 25 25 25 24 24 25 24 23 23 20 19 21 21 22 26 23 13 8 9 7 11 18 20 19 19 19 18 17 16 13 7 3 2 3 5 5 4 4 2 3 2 2 2 2 3 2 2 2 3 3 2 1 4 4 0 1 4 4 4 4 4 4 4 5 7 8 8 9 9 5 3 5 5 4 4 3 4 3 3 3 3 6 8
25 25 25 26 26 26 25 24 25 26 25 24 24 22 20 20 21 23 23 18 10 11 15 14 13 14 15 19 23 24 22 22 22 21 15 8 4 4 6 6 4 3 2 3 4 3 3 3 3 3 4 3 2 2 3 3 4 4 3 3 5 6 5 3 2 5 7 7 9 9 8 9 11 8 3 4 5 4 4 4 4 4 4 4 4 6 8
25 26 25 26 27 26 25 25 25 27 27 25 24 25 24 23 24 23 17 9 4 5 10 11 10 9 13 20 28 29 27 26 28 28 25 18 9 4 6 6 4 3 4 5 5 3 2 3 2 2 4 3 4 3 5 5 4 4 4 3 4 6 6 5 5 6 6 6 8 8 7 11 13 9 5 5 5 4 5 4 4 5 5 5 5 6 7
24 25 25 25 26 26 25 27 27 27 27 26 25 24 23 23 24 22 16 8 4 3 4 6 8 14 20 25 26 25 27 31 34 33 30 26 19 12 11 9 8 8 7 4 4 3 2 2 2 2 5 4 3 4 5 5 4 5 5 5 5 4 4 4 6 8 7 8 12 11 11 14 14 10 7 6 5 5 5 6 5 5 5 5 5 5 6
23 25 26 25 26 26 26 27 28 28 27 26 26 26 25 24 24 23 19 9 3 3 4 5 4 8 14 16 18 21 25 30 33 32 32 33 30 25 19 13 9 9 6 2 3 5 4 4 4 4 5 5 4 5 5 5 4 4 6 7 5 2 2 4 6 7 7 9 11 11 11 13 12 10 9 7 6 6 6 6 5 5 5 5 5 5 5
24 25 25 24 25 27 26 26 27 28 27 26 26 27 29 28 27 26 22 14 4 2 5 5 3 3 7 11 17 22 22 24 28 30 30 31 31 28 21 12 8 7 5 3 4 3 2 3 5 5 5 4 3 4 4 4 4 4 5 6 4 3 7 8 5 4 8 10 10 9 7 9 10 9 8 8 6 5 5 6 5 5 4 4 6 7 7
24 24 24 25 25 26 25 25 26 26 26 26 26 28 28 28 28 28 27 24 15 5 3 3 2 3 5 8 16 22 22 20 23 26 26 27 28 24 18 12 9 7 7 6 5 3 3 4 5 4 3 3 4 5 4 3 3 4 7 7 6 7 10 10 6 7 11 12 11 8 6 9 13 8 6 6 3 2 5 6 5 4 4 3 5 8 9
24 24 24 25 24 24 24 24 24 25 25 23 22 21 20 22 26 27 27 29 24 10 2 4 4 4 5 6 10 18 23 23 24 25 24 23 22 18 13 11 10 8 7 6 6 5 5 5 4 3 3 3 3 3 3 3 5 7 9 11 10 11 13 13 13 15 14 13 11 7 6 10 12 5 2 3 3 2 4 3 2 5 6 4 5 8 9
23 23 24 24 24 24 25 24 23 23 25 21 15 10 7 11 20 25 26 29 28 14 3 4 5 3 5 6 6 11 18 21 23 23 20 16 13 12 12 11 9 8 6 5 5 5 5 4 4 5 6 5 3 2 3 4 5 6 9 12 13 12 12 13 14 13 10 7 4 2 4 8 7 4 3 3 1 2 2 4 5 7 7 6 7 9 8
23 23 23 24 24 22 23 24 23 22 23 18 10 5 1 3 11 19 24 30 30 15 3 4 4 2 3 5 6 10 16 19 17 15 13 12 11 12 14 12 7 6 7 6 5 6 5 5 4 4 6 8 6 3 3 4 6 7 9 11 11 10 11 11 7 3 2 1 2 2 5 7 4 2 4 2 3 5 5 7 8 9 9 9 10 10 9
23 23 22 23 23 22 23 24 22 22 24 23 18 12 6 3 7 13 20 28 27 12 2 2 3 2 2 4 4 9 16 17 12 7 7 9 9 9 11 10 6 6 8 7 4 4 4 5 6 5 6 8 6 2 3 5 8 10 11 12 10 8 7 5 1 3 3 3 3 4 8 6 1 1 3 6 7 7 7 7 8 10 11 12 13 13 13
23 22 21 21 22 21 21 22 21 21 24 25 25 24 18 11 11 11 15 20 18 8 3 3 2 3 4 3 3 5 10 7 4 4 5 6 6 4 5 6 5 6 7 7 5 3 2 4 6 5 5 5 4 2 4 7 10 13 15 13 9 4 1 1 3 3 3 5 4 2 6 7 4 3 6 8 8 8 7 6 8 10 10 12 13 13 12
21 21 20 20 20 20 19 19 20 21 19 15 16 23 26 23 19 15 15 14 8 3 4 4 1 3 4 2 4 4 9 5 3 5 5 4 5 5 4 4 4 4 5 5 4 3 3 3 3 2 2 2 2 1 4 9 13 15 13 8 3 4 2 3 4 4 4 4 2 2 5 7 8 7 7 7 7 8 8 6 7 9 11 12 13 12 11
20 19 19 18 18 19 19 18 18 17 12 8 10 17 23 25 25 24 24 18 7 0 3 4 2 3 4 2 4 5 8 5 3 5 4 3 3 4 4 3 3 4 4 3 2 3 4 3 3 2 2 2 2 3 6 10 12 9 4 3 5 5 3 1 3 4 5 4 5 6 5 6 7 7 8 8 8 8 8 7 6 7 11 13 14 12 11
18 17 17 18 17 15 13 13 14 11 7 7 11 14 16 18 20 23 28 26 16 7 2 2 3 4 5 4 4 3 4 4 3 3 3 1 1 2 2 3 3 3 2 2 2 4 5 3 3 2 3 3 4 4 3 3 2 2 4 4 4 4 3 2 4 6 7 7 7 6 4 4 7 8 9 10 8 7 9 11 10 9 10 13 15 13 12
17 16 16 14 11 7 5 6 10 11 11 13 13 10 10 12 12 12 15 17 15 10 4 2 5 5 4 3 4 1 3 4 3 2 3 2 2 2 1 2 3 2 1 1 4 4 3 3 3 4 5 4 3 0 4 5 4 4 5 3 4 4 3 3 5 6 8 7 5 3 3 6 8 8 8 10 10 8 9 11 10 9 11 14 14 14 13
15 15 12 7 3 2 3 5 9 11 13 14 11 6 5 5 4 2 3 4 6 7 4 4 6 6 3 3 4 3 4 3 2 2 3 3 2 1 0 1 3 3 1 3 5 3 3 2 3 5 5 3 4 5 6 6 5 5 4 3 4 4 4 4 5 5 7 6 3 3 6 10 11 8 7 9 12 12 11 10 8 8 10 11 12 13 14
13 10 6 4 3 3 3 5 9 13 14 13 10 4 2 2 2 1 2 2 2 3 3 4 7 7 6 7 6 3 4 3 3 4 4 2 2 2 1 1 2 1 2 4 4 3 3 3 2 2 4 2 4 4 4 4 5 5 4 3 3 4 3 4 4 4 4 5 6 6 7 9 12 13 11 11 13 14 13 11 9 9 10 11 12 13 14
10 6 3 2 4 6 6 10 14 15 11 7 3 1 1 1 2 3 2 1 1 3 3 4 5 7 8 9 9 6 4 4 4 4 4 3 2 2 2 1 1 2 2 4 3 2 3 2 1 2 3 2 2 3 3 3 3 3 3 2 3 4 3 4 5 5 5 7 8 8 8 9 11 12 12 12 14 15 16 15 13 11 11 13 14 14 15
9 6 3 4 7 10 12 13 13 8 4 2 2 2 2 2 2 1 2 2 2 3 2 2 3 5 7 9 9 7 4 3 2 2 3 2 2 2 2 2 0 2 1 4 2 3 3 1 2 2 2 1 2 2 2 2 2 3 3 2 3 4 4 4 5 6 6 7 7 7 8 10 10 11 11 12 12 13 15 16 16 15 15 16 18 19 21
12 9 6 5 8 9 9 8 5 1 1 2 2 1 2 2 1 0 1 2 3 2 2 1 3 4 5 5 5 5 3 2 2 3 2 2 2 2 2 1 1 2 2 3 0 3 2 1 3 4 2 1 1 0 2 3 4 4 5 4 4 4 5 5 6 6 7 8 7 7 9 10 11 12 13 14 14 15 16 17 18 18 19 21 23 23 23
16 13 8 5 4 4 3 2 2 1 2 2 2 2 3 2 0 1 2 2 1 1 2 1 2 2 1 0 1 1 1 1 2 2 2 1 1 2 2 0 1 1 2 0 3 3 3 4 4 4 3 1 1 2 3 4 4 5 5 5 5 6 7 6 6 8 10 10 10 11 12 12 13 16 18 18 18 18 18 19 21 22 23 24 24 23 24
13 9 5 2 1 2 2 2 2 2 3 3 3 3 4 2 1 3 3 2 2 2 2 2 3 3 3 1 1 1 1 0 1 1 1 1 0 2 2 2 2 1 0 1 2 1 3 3 3 2 1 1 3 4 4 5 5 6 6 6 6 7 7 7 8 9 10 10 11 13 13 13 15 17 18 18 17 16 17 19 22 25 25 24 22 22 24
7 3 3 2 2 2 2 2 1 1 3 4 4 4 4 5 5 5 3 1 1 0 1 1 3 5 3 1 1 1 0 0 1 1 0 1 1 1 2 3 1 1 2 1 0 1 2 3 2 1 2 4 4 5 5 5 5 6 7 8 7 6 7 9 9 9 8 9 10 11 11 12 12 12 13 16 18 18 18 19 22 24 24 20 17 18 20
3 2 3 3 3 3 2 2 1 1 2 3 4 4 5 5 5 5 2 0 1 1 3 2 1 4 3 1 1 1 1 1 1 1 1 2 1 2 2 1 1 2 2 1 1 3 3 2 1 1 3 5 5 5 6 5 5 6 7 8 9 8 8 9 10 10 9 10 10 11 10 10 11 12 13 16 19 20 21 22 23 24 22 17 14 15 18
1 2 3 1 2 2 2 2 3 2 1 1 1 2 4 4 3 2 1 1 0 1 3 3 1 2 1 1 1 1 0 1 1 1 1 2 1 1 1 2 1 1 2 2 4 5 3 1 1 3 4 5 5 6 6 6 6 7 7 8 10 11 10 10 10 10 10 11 11 11 10 11 12 13 14 15 17 20 21 22 23 23 21 18 17 19 21
1 2 2 2 3 2 2 3 3 2 2 1 1 1 1 3 4 2 2 1 1 1 2 1 1 1 1 1 1 1 0 1 1 1 1 2 1 1 1 1 2 2 2 4 4 3 1 0 2 4 4 5 6 6 6 6 7 8 9 9 11 12 12 12 12 11 11 12 11 10 10 12 14 15 14 14 15 18 20 21 22 21 20 19 18 19 19
3 2 1 1 1 1 1 3 5 3 2 2 2 2 2 3 3 0 2 2 1 2 2 1 1 1 0 0 1 1 1 1 1 0 1 1 1 1 1 1 2 3 2 2 2 2 1 2 4 4 5 5 6 6 6 7 8 8 9 10 10 10 10 11 12 12 13 13 11 11 13 15 15 14 13 12 12 15 19 21 21 19 18 18 18 17 16
2 2 1 1 1 2 2 3 4 2 1 2 2 2 2 3 2 1 2 2 2 2 1 1 1 1 0 1 2 1 1 1 1 1 1 1 2 2 1 2 4 5 3 2 2 3 4 4 3 4 5 6 6 7 7 7 8 8 9 9 9 10 11 13 14 14 14 14 15 15 16 15 13 13 13 14 15 18 20 20 18 16 16 17 17 15 15
2 2 2 1 0 2 3 4 4 3 2 2 1 1 1 2 2 2 3 3 2 1 2 2 2 2 2 1 1 1 0 0 1 1 1 2 2 3 3 4 4 4 2 2 2 3 4 4 4 4 5 6 6 7 7 8 8 9 9 9 10 11 12 14 14 14 14 16 17 16 15 16 17 18 19 19 19 17 15 13 14 15 15 15 15 15 15
2 3 2 1 2 2 2 3 3 3 2 2 2 1 2 2 1 2 4 3 1 1 2 2 2 3 2 2 1 1 1 1 1 1 2 2 1 2 3 4 3 3 3 3 3 4 4 4 5 5 5 6 7 8 8 8 9 9 9 10 11 11 11 12 14 14 14 15 16 17 18 20 22 23 20 17 14 10 8 8 11 14 14 13 13 15 15
Wind_Direction
314 321 328 333 340 343 347 352 353 352 353 357 351 312 205 216 225 226 188 175 161 153 223 208 212 232 238 267 255 221 241 250 239 227 215 208 209 226 221 215 222 222 225 230 224 221 219 212 218 228 229 218 217 228 236 241 252 250 232 233 217 178 168 225 243 247 252 267 282 279 254 221 240 247 218 218 226 221 231 239 222 237 260 269 271 261 236
305 311 319 333 338 336 344 350 354 1 358 354 353 316 232 254 248 235 187 181 174 184 215 203 225 228 231 254 244 245 237 228 241 239 213 192 200 219 217 212 222 221 220 225 222 217 223 228 229 228 224 219 220 228 239 246 247 232 217 227 239 233 200 206 240 255 252 250 270 274 254 213 223 233 211 222 233 238 249 252 216 237 243 240 251 258 243
304 302 303 321 327 329 341 344 352 4 353 344 350 326 302 301 251 260 193 191 193 213 212 215 226 219 231 236 231 245 243 224 236 240 234 220 206 217 240 235 234 223 222 237 235 224 232 249 257 243 230 248 241 228 233 240 238 236 233 209 193 246 215 191 229 240 240 243 240 244 245 223 215 215 219 234 232 235 252 263 251 247 241 237 244 258 256
300 300 296 304 311 318 332 337 347 356 351 344 339 317 291 249 245 244 199 202 214 235 221 219 217 213 229 233 221 227 237 244 221 212 235 243 223 229 258 260 272 249 227 244 251 243 241 242 253 266 258 271 281 245 243 246 239 247 251 218 127 240 236 212 228 235 240 248 248 246 252 251 254 256 254 254 244 234 249 260 251 256 258 249 246 256 260
291 297 296 297 302 307 318 329 339 350 352 343 335 321 226 224 254 216 188 206 225 236 227 216 212 203 206 211 214 224 233 248 233 204 222 232 217 225 243 239 240 238 232 242 249 248 246 239 238 249 252 267 288 285 279 269 258 263 266 237 173 221 252 236 234 238 241 248 254 255 254 254 257 261 263 262 256 247 249 252 251 259 270 260 251 256 262
285 291 293 292 298 299 304 314 324 345 352 342 342 333 227 231 269 255 253 209 219 232 231 225 226 219 210 204 221 238 237 229 223 225 240 230 205 208 241 236 233 238 245 248 248 247 248 250 252 251 272 318 319 312 309 295 284 289 283 260 235 244 251 244 243 243 240 243 250 252 252 254 253 254 258 259 257 253 251 253 254 253 255 258 255 256 259
279 283 286 286 291 294 295 297 301 325 342 339 348 307 266 272 286 290 332 346 247 266 289 261 250 236 229 217 219 240 249 240 229 225 255 257 225 219 238 245 247 277 293 247 244 252 246 255 276 333 15 333 315 313 311 313 343 348 326 304 292 263 252 250 253 255 248 242 244 245 247 251 250 249 250 250 253 253 251 252 255 254 256 261 262 258 257
274 275 278 280 282 284 287 286 284 292 307 314 309 263 266 308 299 309 354 300 264 295 34 314 290 250 241 235 222 229 244 247 243 228 220 235 241 227 237 318 19 356 341 186 237 248 192 202 251 347 359 317 301 280 290 310 337 337 321 305 292 278 275 272 270 267 257 249 247 244 242 245 248 249 248 248 249 250 251 252 254 256 258 260 260 260 259
271 271 271 273 273 272 275 276 273 275 274 263 252 263 266 301 318 328 322 282 274 301 242 226 254 249 231 223 222 220 230 243 271 279 233 220 186 78 48 9 353 254 244 263 251 219 116 214 234 246 258 264 268 258 267 295 310 309 299 293 299 296 293 288 279 270 258 251 249 250 250 248 247 247 246 246 245 245 247 247 245 247 252 255 258 260 264
266 267 266 267 267 264 264 263 260 261 256 228 209 272 309 324 323 340 330 281 283 302 315 274 219 238 232 210 258 249 249 12 22 310 258 154 108 80 53 353 334 307 287 294 294 186 244 244 241 240 237 238 245 247 246 248 256 272 283 283 276 265 270 283 276 273 278 268 263 266 263 251 244 239 238 239 240 242 244 244 245 246 249 257 262 267 298
261 262 262 263 263 260 258 255 252 249 242 219 204 243 278 341 340 10 13 265 263 259 273 247 230 245 358 5 331 279 281 19 28 293 280 5 67 56 34 344 319 300 280 294 292 260 244 245 248 244 242 246 248 249 248 245 239 239 249 261 262 257 261 270 273 278 285 287 290 288 269 258 254 225 229 238 243 246 248 252 257 264 283 312 328 359 12
257 256 256 255 255 255 252 249 247 244 242 235 225 235 237 197 142 59 141 249 258 231 216 239 246 307 340 306 287 291 282 295 319 272 273 291 304 331 2 329 270 265 343 357 309 296 281 273 275 268 257 252 250 251 252 250 249 242 233 236 253 264 267 267 268 272 275 282 286 273 258 265 266 97 7 290 270 278 283 276 284 331 357 7 19 23 18
252 253 253 251 250 251 249 246 245 242 244 242 230 230 232 214 179 128 172 236 259 249 237 265 286 307 313 294 277 279 286 286 284 248 259 281 288 291 299 198 219 281 333 337 331 337 327 305 297 285 271 262 254 251 247 247 250 249 238 230 235 248 258 259 256 260 269 272 263 257 267 276 189 69 27 11 3 358 347 332 21 24 9 9 23 18 11
251 252 251 249 248 248 247 246 247 244 243 242 235 233 234 219 195 174 171 228 252 246 229 264 282 267 260 268 273 275 282 283 287 302 269 273 279 283 260 156 183 280 312 325 354 355 321 305 315 307 297 302 293 265 252 249 247 245 244 241 236 238 248 261 258 243 247 259 256 260 272 268 225 48 15 12 359 335 321 274 60 32 10 4 17 12 8
250 251 250 249 248 247 246 246 247 245 241 240 237 236 233 222 211 204 193 223 253 256 230 236 255 240 232 239 239 245 265 265 258 291 305 277 281 291 180 168 195 245 290 321 334 313 274 281 299 304 312 316 304 295 300 300 273 249 247 258 30 256 241 264 274 250 257 271 271 274 271 266 308 336 308 324 294 274 260 229 178 35 13 3 11 12 7
251 251 251 250 249 247 246 247 247 246 242 237 236 236 233 227 220 214 200 190 239 253 239 227 224 215 223 242 229 219 233 237 233 285 297 272 269 278 258 209 211 217 206 261 257 213 233 262 265 275 281 281 285 290 301 314 307 292 328 19 17 346 276 257 281 281 288 282 279 287 277 285 22 327 305 326 308 292 279 220 183 41 14 359 10 12 6
254 252 251 250 250 248 246 246 244 244 242 235 233 234 232 229 223 217 208 189 222 242 261 191 188 204 228 255 257 222 210 210 216 227 248 248 264 299 300 302 272 227 167 154 245 206 213 250 253 258 263 261 266 270 272 281 280 288 322 351 358 350 342 325 292 281 288 286 278 283 280 66 5 332 335 333 307 297 307 243 255 30 14 359 9 4 359
256 255 252 250 250 248 246 245 242 241 240 236 234 234 234 233 225 218 210 199 228 240 230 195 188 204 212 192 186 206 176 127 235 244 254 278 1 263 267 294 311 284 161 136 224 217 206 239 244 244 259 251 232 249 261 269 271 280 302 315 328 337 325 299 270 270 285 285 280 284 268 96 7 345 345 339 325 350 74 284 313 9 358 355 8 354 346
256 255 253 249 248 247 245 243 240 240 240 237 233 233 235 236 228 217 206 196 240 241 208 191 204 229 232 211 201 219 190 177 212 220 262 288 250 186 245 279 310 305 344 100 203 224 215 252 252 240 270 255 234 244 262 252 260 299 322 308 305 312 295 270 259 278 294 288 290 288 264 59 18 353 344 355 5 350 313 307 317 342 325 340 357 338 330
256 256 255 251 249 247 244 242 240 241 241 236 231 230 235 238 232 222 214 206 237 262 246 210 209 223 226 207 192 206 213 208 215 207 215 247 232 83 10 287 279 23 9 120 170 237 219 239 262 258 222 240 249 284 262 258 284 291 297 302 302 300 299 287 267 277 288 276 274 275 265 331 5 351 344 18 50 272 296 319 178 252 303 322 328 321 320
257 256 254 252 250 247 244 243 241 240 238 234 230 231 234 237 234 229 226 220 211 261 253 213 206 216 222 216 206 207 211 205 199 199 212 237 225 113 177 241 208 143 198 165 164 234 216 200 243 265 226 237 264 259 193 332 306 283 187 269 288 267 252 267 269 280 283 262 257 273 296 324 342 342 329 321 275 239 261 261 226 239 257 271 299 305 300
258 256 254 252 250 247 243 242 241 240 239 235 231 229 229 232 234 233 231 224 216 241 254 228 217 228 236 238 230 223 226 230 227 220 213 234 251 204 208 222 202 192 195 144 147 264 267 187 194 235 253 249 246 242 205 186 281 288 22 245 254 215 198 244 276 276 254 241 261 288 309 311 309 307 281 263 242 190 168 200 233 243 236 237 275 295 295
259 258 256 253 250 247 244 243 241 240 240 236 231 227 225 228 232 231 227 222 224 252 258 255 255 254 250 250 248 242 239 243 243 235 226 225 244 234 227 232 224 206 204 179 177 206 221 198 188 213 239 225 183 226 245 216 227 264 275 244 238 236 243 263 273 260 258 253 257 273 289 287 287 292 270 225 214 188 173 190 230 256 256 252 260 276 287
259 257 254 252 250 248 246 244 241 240 239 236 232 231 230 230 229 221 212 205 215 257 256 247 241 238 237 245 249 246 240 239 241 240 233 226 228 250 242 221 192 194 231 218 189 168 174 193 200 220 231 209 147 177 235 233 214 225 244 258 262 248 237 235 242 250 262 264 257 261 271 275 280 286 268 234 219 194 180 201 236 252 257 261 267 273 284
260 258 254 251 251 249 246 244 242 239 238 236 235 234 233 233 229 216 204 207 221 223 247 249 233 230 237 244 244 240 239 240 239 237 233 224 219 232 246 232 207 215 233 220 177 177 202 205 197 213 225 214 167 182 221 228 209 201 206 230 258 242 177 189 236 238 236 253 266 269 267 268 275 277 262 237 208 193 207 226 230 235 251 261 268 276 287
259 259 258 255 254 251 247 244 243 240 237 236 235 232 231 235 233 219 209 215 242 225 233 264 267 235 230 234 233 232 237 240 236 232 230 227 226 231 242 245 233 228 234 201 181 205 216 208 203 215 225 217 186 185 207 212 203 208 215 218 226 235 209 223 240 248 256 263 267 270 273 273 269 258 243 223 195 197 232 247 234 230 253 272 278 279 283
260 260 260 258 255 251 246 244 244 241 238 237 237 235 234 234 232 224 214 207 198 231 237 245 281 252 217 224 238 240 238 236 232 229 229 230 230 230 232 237 241 237 236 239 230 217 194 200 215 222 228 229 213 206 217 215 203 215 236 224 189 194 244 247 239 249 265 262 251 247 260 275 273 253 225 212 197 195 240 262 257 246 252 271 286 288 286
263 262 259 256 255 251 247 245 244 243 241 238 239 241 240 233 228 227 224 217 210 219 264 236 245 285 262 246 244 241 238 235 230 226 226 228 228 226 224 227 234 233 230 234 239 230 210 214 221 219 213 221 233 229 226 226 218 221 234 231 206 209 235 245 243 244 253 259 255 239 227 259 274 265 211 205 227 264 261 259 260 265 267 269 280 287 290
264 262 259 258 256 252 250 248 245 244 243 240 240 245 248 243 235 232 230 224 217 214 268 259 242 271 273 253 233 228 229 230 227 222 223 225 224 220 220 225 229 228 227 228 228 230 229 221 216 218 203 183 197 218 210 214 234 235 233 233 231 229 233 238 244 251 259 268 269 252 225 248 267 276 189 236 286 291 261 257 262 273 278 276 270 273 276
264 262 261 259 255 252 252 249 244 242 241 236 232 234 248 248 236 229 229 228 221 208 205 249 243 265 264 242 211 206 214 220 222 222 221 221 219 216 216 220 226 227 226 226 220 221 231 227 216 222 214 187 169 192 204 213 235 243 238 238 238 236 235 237 243 251 263 275 280 259 242 257 278 325 323 287 42 75 331 311 298 282 280 281 280 278 269
262 261 261 260 256 254 253 247 243 242 236 222 200 183 209 242 222 220 225 225 217 206 196 247 246 310 297 247 212 195 200 208 216 221 221 221 225 224 216 213 219 220 215 221 225 220 225 227 222 224 215 201 195 191 184 212 246 254 243 240 237 231 235 243 247 255 293 343 37 2 280 268 273 309 296 307 34 20 332 304 291 284 282 279 279 279 276
261 260 260 259 257 254 252 249 245 239 230 220 210 211 219 183 180 200 212 210 204 194 148 230 233 271 269 254 233 200 196 203 210 214 216 218 221 224 217 211 213 218 215 217 222 221 222 222 223 233 224 206 201 204 199 216 241 251 246 245 244 235 237 253 318 75 62 37 23 308 281 272 207 121 316 326 331 319 301 286 284 287 288 287 284 277 272
261 260 259 260 259 255 252 251 249 242 235 231 230 230 223 188 157 168 189 195 194 191 181 189 217 234 225 273 297 201 181 185 205 210 214 214 203 203 216 211 210 221 221 213 208 217 228 212 212 230 233 200 183 214 234 231 240 247 249 253 258 257 238 71 78 82 52 33 36 288 271 282 302 319 311 305 296 289 287 289 293 294 292 288 287 285 282
259 260 259 260 261 258 255 255 250 242 233 227 230 232 227 216 207 206 204 196 190 210 210 186 187 236 225 323 329 199 167 149 176 206 216 217 185 172 195 210 206 213 214 203 201 225 230 203 187 211 239 185 146 177 238 241 242 245 249 260 315 7 36 87 86 62 27 16 4 266 264 281 294 298 294 287 283 288 291 289 294 300 298 292 290 294 299
257 258 258 259 261 260 258 257 248 235 221 205 218 229 230 228 228 228 223 212 195 288 240 195 171 214 221 276 292 217 179 166 189 200 207 226 200 184 193 207 214 214 202 177 180 221 216 184 150 180 203 158 155 206 234 243 246 252 269 338 16 16 9 44 38 6 350 331 298 279 274 281 287 292 292 290 292 294 294 288 284 285 288 290 294 299 302
256 256 258 261 259 255 251 244 230 214 197 206 225 231 233 233 232 229 223 216 207 205 220 199 191 201 205 228 252 218 170 180 208 194 186 229 269 213 178 167 201 221 191 127 184 219 208 161 130 180 208 188 200 225 245 263 283 20 59 48 30 33 32 0 337 326 318 303 281 269 272 286 288 291 292 289 284 284 290 294 294 289 287 291 297 301 303
252 254 256 256 250 243 233 212 206 209 218 223 221 220 222 224 225 223 216 210 208 208 201 216 231 216 188 214 244 198 159 194 217 199 193 205 222 218 151 146 191 209 131 204 219 207 180 142 149 203 226 211 190 83 47 57 54 61 76 67 34 38 30 343 333 331 324 311 284 271 309 303 289 281 281 286 292 294 292 293 297 299 297 297 299 303 303
249 250 245 228 196 200 220 206 208 218 218 205 188 179 195 201 200 210 189 182 201 206 190 207 234 222 181 205 227 187 169 194 204 198 209 212 216 235 84 166 203 193 174 241 234 176 132 164 191 212 228 191 100 63 52 71 76 63 65 60 29 20 2 337 340 348 342 334 324 328 326 312 301 292 280 285 296 299 293 290 295 297 294 293 296 300 301
237 231 214 178 168 194 209 199 195 193 186 174 162 163 204 164 130 202 218 184 205 209 185 203 226 215 197 217 235 205 155 169 205 218 223 227 229 228 204 203 219 168 167 238 236 161 163 222 214 210 235 199 108 60 29 63 77 58 45 42 20 0 340 328 331 332 317 299 292 297 301 299 299 300 299 301 304 302 297 298 300 297 294 295 296 297 298
203 184 161 172 205 203 186 175 173 168 163 159 158 159 192 190 187 193 176 138 241 239 202 194 215 213 200 212 232 229 178 170 198 210 211 222 226 188 144 183 202 129 169 239 240 131 144 206 187 184 237 219 111 61 20 44 63 39 23 12 345 329 316 311 309 298 284 278 279 282 278 273 278 285 290 295 299 299 299 302 302 300 301 299 297 298 298
165 159 176 204 197 190 180 172 166 155 134 142 187 172 172 221 242 206 139 154 228 259 247 149 174 212 206 203 218 227 204 170 156 147 161 225 243 133 149 222 251 86 174 243 244 92 98 142 190 213 234 200 103 71 23 2 0 356 341 311 306 309 303 295 288 282 282 283 280 277 276 273 271 273 278 282 284 287 291 295 297 298 300 298 297 298 298
195 193 198 188 178 176 171 162 157 147 138 161 184 201 196 204 211 109 165 188 200 235 263 163 170 205 209 191 201 219 204 148 97 101 124 233 242 142 154 240 32 84 205 231 109 75 91 167 219 232 221 162 144 32 7 355 338 330 319 310 310 307 300 299 296 287 285 284 281 280 280 276 273 274 277 279 280 280 282 286 290 293 295 295 295 296 295
204 194 184 170 160 168 176 170 159 158 164 165 174 182 181 191 179 163 228 259 229 196 237 222 175 201 242 120 131 246 205 138 135 124 131 214 227 96 87 59 127 165 210 150 78 101 176 201 220 230 215 195 284 334 350 332 314 312 308 303 306 303 298 299 298 292 288 284 281 283 284 281 279 280 279 278 279 280 280 282 285 289 292 294 293 292 293
181 170 162 168 177 170 182 185 163 163 183 193 186 172 176 196 203 180 197 246 237 207 229 214 165 181 223 232 88 50 4 48 106 103 125 199 103 81 97 208 220 218 332 52 80 172 224 220 206 188 180 294 309 331 339 324 317 321 314 304 302 303 302 304 303 299 295 291 286 285 285 284 284 284 282 279 278 281 283 285 287 289 292 291 288 286 288
155 137 135 172 206 189 175 169 136 169 192 189 176 173 183 193 199 199 206 232 211 205 312 336 143 158 192 233 74 76 332 11 63 72 103 83 76 119 196 214 206 70 60 75 52 308 287 255 200 101 14 332 320 327 329 318 312 314 311 307 307 306 305 306 307 303 300 298 295 292 291 289 288 289 289 287 285 284 284 286 290 293 293 289 282 282 288
155 164 152 174 210 202 174 176 188 196 202 199 195 194 190 185 187 193 192 53 28 353 322 322 106 129 143 158 105 124 144 114 124 180 114 91 118 226 221 180 112 72 61 54 253 254 254 242 207 350 326 316 312 313 311 308 308 311 310 308 307 307 306 305 303 300 298 297 296 294 294 294 294 294 294 294 292 288 285 286 290 292 291 288 285 291 301
174 172 137 167 217 186 151 191 201 186 177 185 182 185 177 160 144 135 120 96 33 279 285 291 304 110 118 119 114 154 190 101 118 206 140 103 130 281 10 67 156 180 147 190 234 241 235 223 291 299 302 309 311 307 308 309 308 305 303 303 305 308 310 307 302 299 298 297 297 298 298 297 296 296 295 294 293 292 290 292 294 294 292 293 297 304 308
155 164 144 176 197 180 169 177 154 91 51 50 48 15 92 115 101 66 358 317 263 272 285 291 99 83 20 51 111 157 216 59 75 230 170 108 106 327 17 23 262 241 175 187 212 214 149 159 282 292 302 309 307 305 308 310 306 303 305 307 308 310 310 306 302 300 299 299 300 301 299 298 298 298 295 293 293 295 296 298 300 299 298 300 304 307 308
131 146 144 157 147 107 127 143 123 84 19 7 42 40 55 95 108 245 300 315 300 265 251 187 130 116 313 48 100 128 194 173 140 148 68 79 136 207 166 171 237 251 233 201 193 192 228 279 297 302 300 299 302 302 302 302 304 307 308 306 305 305 305 303 301 301 301 300 299 296 297 299 299 296 294 293 294 297 300 301 301 302 305 308 308 308 312
94 102 76 77 108 106 113 119 113 106 330 345 40 62 78 90 91 5 340 349 321 285 244 161 155 144 94 79 75 60 263 226 140 106 132 208 195 173 162 204 217 220 218 202 198 231 264 293 312 302 291 294 300 299 298 300 303 303 301 300 300 301 302 303 302 300 298 298 297 296 296 297 294 292 294 295 293 293 295 298 301 305 309 312 314 316 323
89 77 64 13 93 125 135 132 127 140 167 158 123 81 34 66 67 6 338 326 316 9 89 125 129 76 61 91 145 150 266 337 83 102 224 226 175 151 188 222 221 209 207 229 251 265 283 298 297 289 293 299 296 292 294 299 299 298 298 297 297 300 304 306 304 300 298 299 300 297 294 293 293 293 294 293 290 290 292 298 306 311 314 316 320 326 329
89 99 115 86 10 37 79 99 106 116 128 123 108 66 41 58 36 323 325 333 21 112 131 139 109 93 115 178 180 125 70 32 63 192 234 236 149 152 192 206 199 187 204 247 281 288 284 279 275 276 285 292 292 293 297 296 293 294 297 297 297 302 309 309 305 302 301 302 301 298 295 295 297 298 296 292 289 290 296 305 312 317 319 321 326 330 330